SENTINEL-3B

Last updated on Thu Oct 30 2025 00:02:32 GMT+0000 (Coordinated Universal Time)

1 43437U 18039A 25302.46234405 .00000200 00000+0 10065-3 0 9998 2 43437 98.6320 8.2700 0000731 127.7614 232.3633 14.26734867391224
UTC large
Height (km)
Speed (km/s)
/
Latitude / Longitude
Inclination (degrees)
Orbital Period (minutes)
Azimuth
Elevation
Range (km)
Doppler Factor

Next 0 passes for location: London (51.5072 / 0.1276)

Sorry there are no passes over London.